Вернуться в каталог

DELTA 1 DEB

АктивенSSO
NORAD 21388·DEBRIS·🇺🇸 United States

Запущен Jun 12, 1975 с Vandenberg Space Force Base

Loading…

Ближайшие Пролёты (ближайшие 24 часа)

TLE

СвежийSource: Space-Track

Эпоха: Sep 14, 2026, 09:55 UTC

1 21388U 75052DJ  26257.41329017  .00000058  00000-0  15253-3 0  9992
2 21388  99.5090 131.0679 0072574  38.5308 138.3017 13.50687633739379

Отслеживайте DELTA 1 DEB в реальном времени с AllMySat

Download on the App Store